Hourly Data Report for September 09, 2020

LOURDES DE BLANC SABLON A
QUEBEC
Current Station Operator: NAVCAN

51°26'31.000" N
57°11'10.000" W
37.20 m
7040815
71808
YBX

Download Data

Hourly Data (September 2020)
Hourly Data Report for September 9, 2020
TIME Temp Definition
°C
Dew Point Definition
°C
Rel Hum Definition
%
Wind Dir Definition
10's deg

Wind Spd Definition
km/h
Visibility Definition
km
Stn Press Definition
kPa
Hmdx Definition


Wind Chill Definition


Weather Definition


00:00 11.1 9.3 88 27 25 24.1 101.08     LegendNANA
01:00 10.8 9.2 89 26 31 24.1 101.13     LegendNANA
02:00 10.5 9.2 91 26 28 24.1 101.17     Mainly Clear
03:00 10.1 8.8 92 26 28 24.1 101.27     LegendNANA
04:00 10.0 8.7 91 27 27 24.1 101.36     LegendNANA
05:00 10.2 8.6 90 26 29 24.1 101.44     Mostly Cloudy
06:00 10.2 8.2 87 26 33 24.1 101.56     LegendNANA
07:00 10.2 8.6 90 26 23 24.1 101.65     LegendNANA
08:00 11.1 9.1 87 25 26 24.1 101.74     Mainly Clear
09:00 11.6 8.8 83 25 29 24.1 101.77     LegendNANA
10:00 12.2 9.1 81 25 29 24.1 101.81     LegendNANA
11:00 13.2 9.5 79 25 24 24.1 101.80     Mostly Cloudy
12:00 13.0 9.4 79 24 26 24.1 101.82     LegendNANA
13:00 14.6 10.6 77 24 30 24.1 101.84     LegendNANA
14:00 13.4 10.1 80 24 29 24.1 101.88     Mostly Cloudy
15:00 12.9 10.3 84 24 24 24.1 101.91     LegendNANA
16:00 12.2 10.2 88 25 19 24.1 101.96     LegendNANA
17:00 11.8 10.3 90 26 14 24.1 102.01     Cloudy
18:00 11.2 10.0 92 25 11 24.1 102.02     LegendNANA
19:00 11.0 10.1 94 27 5 24.1 102.06     LegendNANA
20:00 10.8 10.0 95 6 3 24.1 102.05     Cloudy
21:00 10.4 9.8 96 36 2 24.1 102.06     LegendNANA
22:00 10.9 9.4 90 29 10 24.1 102.12     LegendNANA
23:00 11.0 8.3 83 30 13 24.1 102.09     Mostly Cloudy

Notes on Data Quality.

Legend

  • E = Estimated
  • M = Missing
  • NA = Not Available*
  • [empty] = Indicates an unobserved value
Date modified: